Weather in Nikol'sk

Russia / Arkhangel'skaya Oblast'     61°15′16″N   47°43′20″E
temp.,
°C
wind,
m/s
gust,
m/s
humid.,
%
clouds,
%
prec.,
mm/h
press.,
hPa
HPBL,
m
21 april, wed
wed2100:00+1sse22815 0.0 102936
03:000se23841 0.0 102852
06:00+2se2107074 0.0 1027259
09:00+8se51041100 0.0 1024932
12:00+11se61433100 0.0 10221392
15:00+11se71535100 0.0 10191586
18:00+8sse7164899 0.0 10181378
21:00+3sse71592100 0.9 10171044
22 april, thu
thu2200:00+2sse61495100 0.4 1015933
03:00+2sse51396100 0.5 1014732
06:00+2sse51396100 0.5 1014673
09:00+2s51296100 1.4 1014677
12:00+3ssw41096100 0.3 1016644
15:00+7ssw5975100 0.4 10161065
18:00+7s4976100 0.0 10171002
21:00+6s4118598 0.1 1018699
23 april, fri
fri2300:00+4s4119458 0.1 1018380
03:00+5ssw4109288 0.1 1019487
06:00+5s498998 0.0 1020308
09:00+9s486957 0.0 1021612
12:00+12ssw575268 0.0 10211605
15:00+12s475198 0.0 10211693
18:00+10sse41064100 0.0 1021736
21:00+9sse41173100 0.0 1022592
24 april, sat
sat2400:00+8sse41081100 0.0 1022448
03:00+7se41082100 0.0 1021379
06:00+7se41181100 0.0 1021435
09:00+11se46635 0.0 1020890
12:00+11se4558100 0.1 10181569
15:00+10ese4654100 0.1 10171551
18:00+8ese4968100 0.0 1015716
21:00+7ese4973100 0.0 1014485
25 april, sun
sun2500:00+6e3981100 0.1 1012562
03:00+6e3887100 0.1 1010507
06:00+5e3694100 0.7 1007921
09:00+6ese3794100 1.1 1005948
12:00+6ese3792100 0.7 1004911
15:00+6ese3691100 1.3 1003941
18:00+4sw4696100 1.9 1003681
21:00+3sw3996100 2.6 1004594